Hourly Weather Lukino

Today, 7 May, Friday

Time Temperature Precipitation Wind Pressure Humidity
00:00 +3°C° 0 mm 4 mps 737 mmHg 93%
01:00 +1°C° 0 mm 4 mps 737 mmHg 93%
02:00 +1°C° 0 mm 4 mps 737 mmHg 93%
03:00 +2°C° 0 mm 3 mps 737 mmHg 93%
04:00 +1°C° 0 mm 3 mps 737 mmHg 93%
05:00 +1°C° 0 mm 3 mps 738 mmHg 93%
06:00 +3°C° 0 mm 4 mps 738 mmHg 85%
07:00 +5°C° 0 mm 4 mps 738 mmHg 77%
08:00 +7°C° 0 mm 5 mps 739 mmHg 68%
09:00 +7°C° 0.1 mm 5 mps 739 mmHg 64%
10:00 +8°C° 0.1 mm 6 mps 739 mmHg 61%
11:00 +9°C° 0.1 mm 6 mps 739 mmHg 57%
12:00 +10°C° 0.2 mm 6 mps 739 mmHg 56%
13:00 +10°C° 0.2 mm 6 mps 739 mmHg 55%
14:00 +11°C° 0.2 mm 6 mps 739 mmHg 54%
15:00 +10°C° 0.3 mm 5 mps 738 mmHg 61%
16:00 +11°C° 0.3 mm 4 mps 738 mmHg 67%
17:00 +10°C° 0.3 mm 4 mps 738 mmHg 73%
18:00 +9°C° 0.1 mm 3 mps 738 mmHg 77%
19:00 +8°C° 0.1 mm 3 mps 738 mmHg 82%
20:00 +7°C° 0.1 mm 3 mps 738 mmHg 87%
21:00 +7°C° 0.1 mm 3 mps 738 mmHg 87%
22:00 +6°C° 0.1 mm 4 mps 737 mmHg 88%
23:00 +6°C° 0.1 mm 4 mps 737 mmHg 89%

Tomorrow, 8 May, Saturday

Time Temperature Precipitation Wind Pressure Humidity
00:00 +6°C° 0.9 mm 5 mps 736 mmHg 90%
01:00 +5°C° 0.9 mm 6 mps 735 mmHg 91%
02:00 +5°C° 0.9 mm 6 mps 734 mmHg 92%
03:00 +5°C° 0.2 mm 6 mps 734 mmHg 93%
04:00 +7°C° 0.2 mm 5 mps 734 mmHg 94%
05:00 +7°C° 0.2 mm 5 mps 733 mmHg 95%
06:00 +7°C° 0.4 mm 4 mps 733 mmHg 95%
07:00 +8°C° 0.4 mm 3 mps 733 mmHg 96%
08:00 +8°C° 0.4 mm 3 mps 733 mmHg 96%
09:00 +9°C° 0.4 mm 3 mps 733 mmHg 92%
10:00 +8°C° 0.4 mm 4 mps 733 mmHg 88%
11:00 +8°C° 0.4 mm 4 mps 733 mmHg 85%
12:00 +8°C° 0.1 mm 5 mps 733 mmHg 84%
13:00 +8°C° 0.1 mm 5 mps 733 mmHg 83%
14:00 +8°C° 0.1 mm 5 mps 734 mmHg 82%
15:00 +7°C° 0.1 mm 5 mps 734 mmHg 83%
16:00 +6°C° 0.1 mm 5 mps 734 mmHg 83%
17:00 +6°C° 0.1 mm 5 mps 735 mmHg 84%
18:00 +5°C° 0.2 mm 5 mps 736 mmHg 85%
19:00 +5°C° 0.2 mm 4 mps 736 mmHg 86%
20:00 +4°C° 0.2 mm 4 mps 737 mmHg 86%
21:00 +4°C° 0 mm 4 mps 737 mmHg 87%
22:00 +3°C° 0 mm 4 mps 738 mmHg 88%
23:00 +1°C° 0 mm 4 mps 738 mmHg 89%

Day after tomorrow, 9 May, Sunday

Time Temperature Precipitation Wind Pressure Humidity
00:00 +1°C° 0 mm 4 mps 739 mmHg 90%
01:00 0°C° 0 mm 4 mps 740 mmHg 91%
02:00 -1°C° 0 mm 4 mps 741 mmHg 92%
03:00 -1°C° 0 mm 4 mps 741 mmHg 91%
04:00 0°C° 0 mm 4 mps 742 mmHg 91%
05:00 0°C° 0 mm 5 mps 743 mmHg 90%
06:00 +1°C° 0 mm 5 mps 743 mmHg 82%
07:00 +3°C° 0 mm 5 mps 744 mmHg 75%
08:00 +5°C° 0 mm 5 mps 744 mmHg 67%
09:00 +6°C° 0 mm 5 mps 745 mmHg 60%
10:00 +7°C° 0 mm 5 mps 745 mmHg 53%
11:00 +9°C° 0 mm 5 mps 746 mmHg 45%
12:00 +9°C° 0 mm 5 mps 746 mmHg 43%
13:00 +10°C° 0 mm 5 mps 747 mmHg 40%
14:00 +12°C° 0 mm 5 mps 747 mmHg 37%
15:00 +12°C° 0 mm 4 mps 747 mmHg 41%
16:00 +11°C° 0 mm 3 mps 748 mmHg 44%
17:00 +12°C° 0 mm 2 mps 748 mmHg 48%
18:00 +10°C° 0 mm 2 mps 749 mmHg 53%
19:00 +8°C° 0 mm 2 mps 749 mmHg 59%
20:00 +6°C° 0 mm 2 mps 750 mmHg 65%
21:00 +5°C° 0 mm 2 mps 750 mmHg 67%
22:00 +5°C° 0 mm 2 mps 750 mmHg 68%
23:00 +4°C° 0 mm 2 mps 751 mmHg 70%

10 May, Monday

Time Temperature Precipitation Wind Pressure Humidity
00:00 +4°C° 0 mm 2 mps 751 mmHg 72%
01:00 +3°C° 0 mm 2 mps 751 mmHg 73%
02:00 +3°C° 0 mm 2 mps 752 mmHg 74%
03:00 +3°C° 0 mm 2 mps 752 mmHg 75%
04:00 +4°C° 0 mm 2 mps 752 mmHg 75%
05:00 +4°C° 0 mm 2 mps 753 mmHg 76%
06:00 +5°C° 0 mm 3 mps 753 mmHg 70%
07:00 +8°C° 0 mm 3 mps 753 mmHg 64%
08:00 +10°C° 0 mm 4 mps 753 mmHg 59%
09:00 +11°C° 0 mm 4 mps 753 mmHg 57%
10:00 +12°C° 0 mm 4 mps 753 mmHg 55%
11:00 +13°C° 0 mm 4 mps 753 mmHg 54%
12:00 +14°C° 0 mm 4 mps 753 mmHg 52%
13:00 +15°C° 0 mm 4 mps 753 mmHg 50%
14:00 +17°C° 0 mm 3 mps 753 mmHg 48%
15:00 +17°C° 0 mm 3 mps 753 mmHg 52%
16:00 +16°C° 0 mm 3 mps 753 mmHg 55%
17:00 +16°C° 0 mm 3 mps 753 mmHg 59%
18:00 +14°C° 0 mm 2 mps 753 mmHg 65%
19:00 +12°C° 0 mm 2 mps 753 mmHg 71%
20:00 +10°C° 0 mm 2 mps 753 mmHg 76%
21:00 +9°C° 0 mm 2 mps 754 mmHg 78%
22:00 +8°C° 0 mm 2 mps 754 mmHg 79%
23:00 +8°C° 0 mm 2 mps 754 mmHg 80%

11 May, Tuesday

Time Temperature Precipitation Wind Pressure Humidity
00:00 +7°C° 0 mm 2 mps 754 mmHg 81%
01:00 +7°C° 0 mm 2 mps 754 mmHg 82%
02:00 +6°C° 0 mm 2 mps 754 mmHg 83%
03:00 +7°C° 0 mm 2 mps 754 mmHg 82%
04:00 +7°C° 0 mm 2 mps 754 mmHg 80%
05:00 +7°C° 0 mm 2 mps 755 mmHg 79%
06:00 +9°C° 0 mm 2 mps 755 mmHg 72%
07:00 +12°C° 0 mm 2 mps 755 mmHg 65%
08:00 +14°C° 0 mm 2 mps 755 mmHg 57%
09:00 +14°C° 0 mm 3 mps 754 mmHg 54%
10:00 +16°C° 0 mm 3 mps 754 mmHg 51%
11:00 +18°C° 0 mm 3 mps 754 mmHg 47%
12:00 +18°C° 0 mm 3 mps 754 mmHg 47%
13:00 +19°C° 0 mm 3 mps 754 mmHg 46%
14:00 +19°C° 0 mm 2 mps 753 mmHg 45%
15:00 +19°C° 0 mm 2 mps 753 mmHg 49%
16:00 +19°C° 0 mm 2 mps 753 mmHg 52%
17:00 +18°C° 0 mm 2 mps 753 mmHg 56%
18:00 +16°C° 0 mm 2 mps 752 mmHg 63%
19:00 +14°C° 0 mm 2 mps 752 mmHg 69%
20:00 +11°C° 0 mm 3 mps 752 mmHg 76%
21:00 +10°C° 0 mm 2 mps 752 mmHg 78%
22:00 +10°C° 0 mm 2 mps 752 mmHg 80%
23:00 +9°C° 0 mm 2 mps 752 mmHg 82%

12 May, Wednesday

Time Temperature Precipitation Wind Pressure Humidity
00:00 +8°C° 0 mm 2 mps 752 mmHg 83%
01:00 +8°C° 0 mm 2 mps 752 mmHg 84%
02:00 +8°C° 0 mm 2 mps 752 mmHg 86%
03:00 +8°C° 0 mm 2 mps 752 mmHg 85%
04:00 +8°C° 0 mm 2 mps 752 mmHg 85%
05:00 +9°C° 0 mm 2 mps 752 mmHg 84%
06:00 +12°C° 0 mm 2 mps 752 mmHg 77%
07:00 +13°C° 0 mm 3 mps 751 mmHg 70%
08:00 +16°C° 0 mm 3 mps 751 mmHg 63%
09:00 +17°C° 0 mm 3 mps 751 mmHg 59%
10:00 +18°C° 0 mm 4 mps 751 mmHg 55%
11:00 +20°C° 0 mm 4 mps 751 mmHg 51%
12:00 +20°C° 0 mm 4 mps 750 mmHg 51%
13:00 +21°C° 0 mm 4 mps 750 mmHg 50%
14:00 +21°C° 0 mm 4 mps 749 mmHg 49%
15:00 +21°C° 0 mm 4 mps 749 mmHg 53%
16:00 +21°C° 0 mm 4 mps 749 mmHg 57%
17:00 +21°C° 0 mm 4 mps 749 mmHg 62%
18:00 +19°C° 0 mm 3 mps 749 mmHg 70%
19:00 +17°C° 0 mm 3 mps 748 mmHg 78%
20:00 +14°C° 0 mm 3 mps 748 mmHg 86%
21:00 +13°C° 0 mm 3 mps 748 mmHg 88%
22:00 +14°C° 0 mm 2 mps 748 mmHg 90%
23:00 +13°C° 0 mm 2 mps 748 mmHg 92%
Show more

We Need Your Consent

Meteoprog and our Service Providers may store and access personal data such as cookies, device identifiers or other similar technologies on your device and process such data to personalise content and ads, as well as provide social media features and to analyse the traffic.

  • Store and/or access information on your device

    Cookies, device identifiers or other information can be stored or accessed on your device for the purposes indicated above.

  • Personalised ads and content, ad and content measurement, audience insights, and products development

    Ads and content can be personalised based on a profile. More data can be added to better personalise ads and content. Ad and content performance can be measured. Insights about the audience who saw the ads and content can be derived. Such data can be used to develop or improve user’s experience, systems and software.

By clicking ‘I Agree’ you will allow the use of indicated cookies, device identifiers, web beacons or other similar technologies. Your settings can be changed in the browser on your device.

For certain purposes, legitimate interests may be relied on, rather than consent. You can read more about this in our Privacy and Cookie Policy.